Wind_Speed
12 13 14 14 15 15 15 15 14 14 14 13 11 11 9 9 4 2 3 3 6 8 7 8 8 5 3 5 14 12 5 7 10 9 11 12 13 7 2 4 5 7 14 21 24
7 9 11 12 13 14 14 14 14 14 13 14 13 11 9 9 6 5 7 5 3 6 7 6 6 6 4 8 15 4 4 12 12 13 17 10 14 6 6 3 4 11 18 20 22
3 4 6 7 8 8 10 10 10 10 10 10 9 8 9 9 8 8 8 8 5 6 10 7 11 14 14 13 8 8 15 8 17 16 19 14 15 8 3 8 6 4 16 23 20
2 2 3 4 5 5 6 7 7 6 6 7 7 7 6 10 7 8 11 10 8 7 7 8 10 10 9 6 8 10 9 3 20 19 15 17 13 15 6 9 6 6 10 18 18
1 2 2 3 4 4 5 5 5 4 3 4 4 4 7 8 10 11 14 13 12 9 7 8 1 3 12 10 9 10 8 4 21 20 18 14 18 20 9 8 3 5 9 14 18
1 1 1 2 3 4 5 5 6 5 3 2 2 4 7 10 15 12 12 15 17 12 9 6 4 4 11 10 5 6 11 4 18 21 13 13 12 21 14 11 6 3 8 12 15
4 4 3 2 1 1 2 4 5 5 4 2 2 5 9 11 11 14 12 10 13 14 12 8 6 4 8 9 9 4 9 3 10 11 9 11 14 19 12 12 8 5 10 12 15
4 4 3 3 2 2 2 2 1 2 4 4 4 6 11 11 10 10 10 6 12 14 12 11 8 6 6 6 4 6 7 2 9 11 13 11 11 12 12 12 9 7 12 13 15
2 2 2 3 2 3 4 4 4 3 2 2 4 8 9 6 9 10 9 11 12 12 14 15 14 11 11 7 1 4 8 5 10 6 10 14 6 7 10 12 10 11 16 15 15
1 1 2 2 2 3 3 3 2 1 3 5 4 7 4 5 7 5 8 9 14 15 16 17 15 13 11 5 3 8 12 11 10 12 11 10 13 13 12 14 14 13 17 18 16
2 2 3 3 3 3 4 4 3 3 3 3 4 2 1 4 5 1 2 5 12 15 17 15 16 19 16 10 8 12 13 17 14 17 22 14 12 18 17 19 20 20 20 20 18
3 3 4 4 4 3 3 3 5 14 19 21 19 18 17 20 22 13 5 1 11 15 14 15 16 15 16 13 10 9 14 15 15 16 19 21 15 19 21 19 20 17 20 21 20
3 4 5 5 5 4 3 1 13 19 18 17 16 17 15 12 14 12 14 16 4 8 14 14 11 14 13 14 14 13 12 16 19 20 18 22 17 14 23 23 23 26 20 23 22
6 5 5 6 5 5 3 4 19 13 8 8 8 10 11 5 11 8 6 12 15 6 1 4 10 13 17 18 15 18 14 17 18 17 15 15 18 18 14 24 31 28 27 26 23
8 7 6 6 5 5 2 8 16 9 4 7 5 9 10 5 5 7 4 5 10 8 3 5 9 11 13 15 17 22 20 20 21 22 20 21 13 21 21 21 28 27 30 33 27
9 8 7 7 6 4 2 10 9 4 3 5 3 5 7 8 8 5 2 2 6 2 7 7 6 6 11 14 15 17 22 23 22 18 11 23 19 25 25 27 27 33 34 36 32
9 8 8 7 6 6 5 10 4 3 9 5 3 4 3 6 11 5 5 4 8 8 11 9 4 5 10 14 14 11 11 8 6 2 7 9 15 28 20 18 19 23 24 31 38
8 8 8 7 7 6 8 9 2 5 7 6 5 3 4 4 6 7 9 10 10 10 8 8 5 5 10 17 17 19 10 2 4 3 10 27 10 12 21 25 27 23 26 24 37
7 8 9 7 6 5 6 6 5 6 5 1 2 6 2 4 3 2 5 9 12 15 12 9 7 17 17 16 18 15 10 16 15 21 15 11 30 32 26 25 22 25 26 29 34
5 7 6 4 5 8 6 6 6 3 2 3 4 2 7 11 8 7 4 7 7 10 11 9 12 12 21 24 14 8 17 7 6 3 5 7 15 21 19 20 23 28 27 27 28
5 9 11 4 6 6 10 5 5 5 4 4 8 7 10 10 9 9 4 10 11 13 13 15 11 15 21 21 18 20 13 5 9 9 3 5 7 15 23 23 24 30 27 25 31
8 14 10 5 4 4 4 3 1 9 7 7 8 6 5 9 10 11 8 9 14 16 18 11 9 14 20 20 16 14 6 13 4 7 22 15 21 24 25 29 26 24 23 20 32
11 13 9 3 3 4 0 2 6 9 6 5 5 4 8 9 5 3 6 12 15 16 13 14 6 12 15 4 11 14 21 20 15 15 19 12 14 20 19 24 32 21 18 19 25
14 15 12 10 7 4 4 4 5 6 7 7 9 10 7 7 7 7 13 12 17 21 17 14 15 12 9 16 21 27 30 23 15 21 27 27 37 29 27 24 25 26 26 25 27
17 14 16 13 10 5 9 5 6 7 9 12 14 13 11 10 12 15 19 23 22 21 17 13 19 22 24 25 25 27 29 26 21 24 26 33 37 30 21 27 24 28 28 28 26
11 13 14 10 11 8 10 9 8 9 8 12 11 11 11 14 15 17 19 20 22 24 19 20 13 15 22 23 22 26 33 33 26 23 22 28 34 24 21 19 30 29 30 22 22
10 11 13 14 15 12 10 9 6 7 9 10 8 9 14 19 19 16 15 22 25 21 14 17 18 19 24 22 26 27 24 17 19 17 15 24 28 26 21 15 26 31 30 26 28
Wind_Direction
241 244 247 251 256 260 263 264 264 261 261 261 254 248 241 247 236 185 146 103 57 69 94 89 91 71 27 120 128 178 202 151 146 131 173 158 176 154 1 349 109 106 156 160 153
248 248 250 251 255 260 264 265 266 266 263 262 258 249 240 231 225 187 151 153 99 68 118 113 101 53 69 60 116 9 251 235 144 130 153 176 193 314 358 50 81 134 164 155 157
248 246 250 254 255 257 264 269 269 265 264 261 257 248 233 219 204 198 170 174 150 92 100 97 93 69 55 46 47 19 19 151 161 152 166 184 196 234 5 22 56 77 158 148 153
274 265 255 256 260 259 259 263 263 264 262 263 256 237 213 202 189 193 180 176 169 142 121 99 90 74 58 11 11 348 351 170 191 186 169 176 187 220 253 326 53 105 149 150 147
281 284 278 266 260 260 261 263 263 259 257 256 245 220 193 175 174 180 187 181 179 178 161 148 47 32 39 19 334 320 350 135 182 173 169 186 207 220 240 268 344 160 155 151 142
38 32 333 289 273 267 267 267 267 268 254 233 221 186 177 170 192 182 183 193 185 186 182 161 171 38 34 45 52 56 357 244 203 195 173 192 210 209 219 248 270 189 170 159 147
73 73 67 39 -0 292 276 275 272 263 263 236 186 164 171 184 195 207 197 210 203 196 187 179 233 248 31 78 0 355 340 102 181 236 183 185 201 209 254 236 259 219 187 167 161
66 61 62 55 57 50 48 35 318 266 238 224 179 159 175 197 198 197 187 181 205 207 197 192 197 239 281 351 306 324 316 355 115 162 171 183 220 233 224 228 231 236 201 181 171
35 38 17 25 46 37 38 35 45 65 77 186 169 156 142 177 223 237 236 207 210 207 202 199 203 227 247 296 221 73 18 325 103 13 206 227 267 244 229 232 234 238 214 200 177
311 337 334 336 356 12 20 23 17 348 44 83 137 154 195 185 205 253 240 241 216 213 209 206 210 224 241 295 14 337 331 344 257 322 289 235 251 263 245 237 235 236 225 215 200
296 307 301 308 324 342 341 349 10 23 102 113 104 119 270 280 280 211 326 231 203 205 211 217 219 230 240 268 296 308 316 312 306 311 287 285 253 247 256 237 234 233 233 231 217
282 295 292 291 295 308 328 331 102 107 101 85 81 78 79 77 63 67 47 292 202 205 213 216 230 240 254 267 276 295 304 305 308 319 288 270 286 245 253 268 255 250 241 236 224
265 281 288 288 288 293 314 329 138 125 98 82 77 65 61 81 49 39 44 50 51 218 225 233 232 237 253 264 278 273 287 314 323 325 315 262 259 263 251 255 255 242 249 246 242
256 265 277 283 285 305 284 144 142 137 101 75 73 52 27 54 58 34 79 48 43 25 188 242 245 255 260 270 285 286 293 305 305 327 310 269 258 271 262 267 252 242 239 238 237
245 253 260 269 277 296 306 137 147 142 83 107 73 32 346 29 28 62 76 26 18 28 338 352 317 305 287 278 288 291 288 295 298 307 297 285 258 266 271 269 260 256 246 242 237
242 244 250 256 258 263 190 152 145 140 99 138 103 28 104 105 69 109 122 291 341 340 333 305 317 319 305 296 299 307 291 292 292 286 257 272 255 277 256 273 270 271 266 248 240
237 239 247 251 250 231 187 159 159 99 148 134 91 157 111 71 109 60 32 353 25 352 350 338 344 325 291 297 299 319 297 335 307 258 230 265 274 247 275 275 272 274 268 253 242
236 235 241 243 242 230 200 188 149 126 146 114 117 180 149 127 67 73 87 58 26 10 8 2 327 313 326 344 332 337 9 219 259 241 287 289 260 265 268 283 275 280 282 269 246
234 228 227 226 241 234 199 182 141 149 147 70 48 232 207 256 326 4 20 35 28 13 19 354 287 300 318 311 325 323 329 317 276 274 277 259 282 285 267 266 274 276 275 274 253
228 212 194 187 210 212 203 169 147 160 254 312 333 315 278 286 295 293 317 345 346 351 354 334 312 322 313 317 317 309 314 331 287 273 269 258 267 271 278 286 267 289 287 251 245
200 175 171 96 187 187 149 109 150 186 241 304 319 307 298 287 296 306 278 314 267 290 314 322 307 305 315 320 315 306 328 347 309 282 249 308 259 290 284 313 286 279 286 246 231
186 162 157 133 49 146 147 340 159 237 270 306 311 309 302 310 297 299 296 279 284 302 316 321 301 304 311 326 299 282 35 13 5 300 303 276 282 290 281 282 300 276 280 254 225
190 176 164 156 293 181 235 303 182 225 245 265 256 248 303 299 289 245 239 286 292 305 308 310 308 323 318 298 309 321 316 322 328 297 285 271 275 287 287 275 277 256 247 266 246
185 176 183 214 237 249 236 207 203 219 235 257 267 269 284 280 271 274 282 286 291 301 297 295 286 294 276 288 301 298 301 308 314 299 296 296 310 281 274 270 267 270 240 241 248
195 194 193 199 216 224 239 215 241 255 244 248 255 264 285 275 283 286 292 294 293 289 282 276 286 279 278 278 280 284 291 296 293 298 279 295 297 299 277 277 264 258 255 236 232
214 203 202 200 212 228 244 235 255 269 264 227 240 263 276 283 294 304 303 310 312 299 290 295 285 294 287 281 294 286 275 277 287 290 275 280 285 283 271 254 228 238 245 238 258
238 229 227 234 239 236 240 229 218 248 254 265 276 286 295 302 302 297 292 314 302 295 302 289 290 291 286 299 308 292 285 282 258 272 275 281 295 280 283 259 232 227 224 233 248
Height
3157 3157 3157 3157 3156 3156 3156 3156 3157 3157 3157 3158 3160 3161 3163 3163 3164 3165 3166 3167 3166 3165 3165 3164 3164 3164 3165 3142 3164 3167 3166 3167 3170 3171 3170 3174 3173 3172 3173 3172 3171 3171 3172 3171 3172
3155 3155 3155 3155 3155 3154 3154 3154 3154 3154 3155 3155 3157 3159 3160 3162 3164 3165 3167 3167 3167 3167 3167 3167 3166 3166 3166 3166 3169 3170 3167 3169 3173 3172 3171 3173 3175 3175 3175 3173 3173 3172 3173 3173 3174
3154 3154 3154 3154 3153 3153 3152 3152 3152 3152 3152 3153 3154 3156 3158 3160 3163 3164 3166 3167 3168 3168 3168 3169 3167 3167 3167 3167 3169 3168 3167 3168 3173 3173 3173 3174 3175 3176 3176 3175 3174 3175 3175 3174 3176
3153 3153 3153 3153 3152 3152 3151 3151 3151 3151 3151 3151 3152 3154 3156 3158 3163 3163 3165 3167 3168 3169 3169 3170 3169 3170 3169 3171 3171 3171 3170 3168 3169 3172 3174 3175 3176 3176 3177 3178 3176 3177 3178 3177 3177
3153 3153 3152 3152 3151 3151 3150 3150 3150 3149 3150 3150 3151 3152 3155 3157 3159 3161 3163 3166 3167 3170 3170 3170 3171 3171 3171 3171 3172 3172 3172 3169 3169 3171 3173 3173 3174 3176 3177 3177 3178 3178 3179 3179 3179
3153 3152 3151 3151 3150 3150 3149 3149 3148 3148 3149 3150 3150 3151 3154 3157 3157 3160 3162 3165 3166 3168 3170 3171 3172 3172 3172 3170 3172 3173 3174 3171 3169 3169 3174 3174 3174 3175 3178 3178 3178 3179 3180 3180 3181
3153 3153 3152 3151 3150 3150 3149 3148 3148 3148 3148 3149 3150 3151 3153 3156 3156 3159 3161 3164 3167 3168 3169 3171 3171 3171 3172 3172 3173 3173 3173 3174 3171 3164 3174 3177 3176 3174 3177 3177 3178 3178 3180 3181 3182
3153 3153 3152 3151 3151 3150 3150 3149 3148 3148 3148 3148 3149 3150 3152 3154 3156 3158 3161 3162 3165 3166 3169 3169 3169 3171 3173 3173 3174 3173 3174 3176 3175 3173 3174 3177 3176 3176 3175 3176 3176 3177 3179 3180 3182
3153 3153 3152 3152 3151 3150 3150 3149 3149 3149 3149 3149 3150 3151 3152 3154 3155 3156 3158 3160 3163 3165 3166 3167 3168 3169 3171 3172 3173 3173 3174 3176 3176 3175 3176 3174 3172 3174 3174 3175 3177 3178 3179 3180 3181
3153 3153 3152 3152 3151 3151 3150 3150 3150 3150 3151 3151 3152 3155 3154 3154 3153 3155 3156 3157 3160 3162 3165 3167 3167 3168 3169 3170 3172 3172 3173 3174 3173 3175 3173 3171 3171 3171 3173 3174 3176 3177 3178 3179 3180
3153 3152 3152 3151 3151 3151 3151 3150 3153 3152 3151 3151 3152 3152 3153 3152 3153 3154 3154 3155 3157 3159 3162 3164 3166 3167 3169 3170 3170 3170 3171 3171 3170 3172 3170 3169 3170 3170 3171 3174 3174 3176 3177 3177 3178
3152 3152 3151 3151 3151 3150 3150 3150 3150 3153 3153 3152 3152 3153 3153 3152 3153 3154 3155 3156 3156 3158 3160 3164 3164 3166 3167 3168 3169 3171 3171 3170 3168 3169 3167 3167 3166 3168 3168 3169 3172 3173 3175 3176 3177
3151 3151 3151 3150 3150 3150 3150 3149 3149 3151 3153 3154 3154 3154 3155 3155 3155 3156 3157 3156 3157 3158 3160 3162 3165 3165 3165 3166 3166 3167 3167 3167 3168 3164 3164 3165 3165 3165 3166 3167 3170 3172 3174 3174 3174
3150 3150 3150 3149 3151 3149 3149 3149 3149 3150 3153 3157 3156 3156 3156 3155 3155 3156 3156 3158 3158 3158 3159 3161 3162 3163 3164 3164 3165 3164 3166 3165 3163 3164 3164 3164 3161 3161 3163 3163 3163 3166 3168 3170 3171
3149 3149 3149 3148 3148 3148 3149 3148 3149 3151 3153 3159 3157 3157 3155 3156 3157 3157 3156 3157 3158 3158 3161 3162 3161 3161 3162 3162 3162 3161 3162 3162 3161 3160 3160 3160 3161 3156 3159 3158 3158 3159 3162 3165 3166
3147 3148 3148 3147 3147 3148 3148 3149 3150 3153 3153 3156 3157 3157 3156 3155 3155 3155 3155 3157 3157 3157 3158 3159 3159 3160 3160 3159 3159 3158 3156 3156 3157 3157 3155 3156 3158 3147 3152 3152 3153 3154 3156 3158 3160
3146 3146 3146 3146 3147 3147 3148 3150 3152 3150 3154 3156 3156 3155 3156 3156 3155 3154 3154 3154 3155 3156 3156 3157 3158 3158 3157 3156 3156 3155 3155 3155 3155 3153 3150 3153 3152 3145 3147 3148 3148 3149 3149 3151 3154
3144 3145 3145 3145 3145 3145 3147 3150 3150 3151 3152 3154 3155 3155 3156 3157 3157 3156 3154 3153 3154 3154 3155 3155 3156 3155 3156 3156 3156 3155 3156 3157 3158 3155 3148 3147 3142 3139 3143 3143 3145 3145 3145 3147 3149
3142 3143 3143 3144 3144 3145 3147 3147 3148 3150 3152 3153 3154 3154 3155 3156 3157 3157 3155 3154 3154 3154 3156 3155 3153 3154 3155 3154 3156 3154 3154 3155 3151 3148 3145 3141 3137 3136 3137 3138 3139 3140 3139 3140 3141
3140 3141 3142 3143 3143 3144 3146 3146 3147 3149 3151 3152 3152 3153 3153 3154 3155 3155 3155 3156 3155 3154 3154 3154 3151 3150 3149 3150 3153 3152 3152 3150 3148 3145 3143 3134 3133 3130 3134 3135 3134 3134 3133 3133 3135
3139 3140 3141 3142 3143 3143 3145 3146 3146 3148 3149 3151 3151 3152 3152 3152 3153 3154 3154 3155 3151 3151 3152 3151 3149 3149 3148 3147 3146 3145 3147 3148 3147 3146 3141 3136 3127 3130 3132 3131 3128 3127 3127 3128 3130
3137 3139 3140 3141 3143 3142 3144 3144 3146 3147 3148 3149 3149 3150 3151 3152 3152 3153 3153 3152 3150 3150 3149 3148 3147 3145 3145 3144 3142 3142 3146 3146 3143 3143 3141 3136 3122 3127 3128 3127 3126 3125 3122 3122 3126
3135 3137 3139 3139 3141 3141 3142 3143 3144 3145 3147 3147 3148 3148 3149 3150 3152 3150 3150 3150 3149 3148 3148 3146 3145 3142 3141 3144 3142 3141 3142 3143 3142 3138 3136 3135 3121 3124 3124 3122 3122 3121 3119 3119 3122
3134 3136 3137 3138 3139 3140 3141 3142 3144 3145 3145 3146 3146 3146 3147 3148 3149 3148 3148 3149 3147 3146 3145 3144 3142 3142 3143 3143 3140 3136 3136 3138 3139 3136 3130 3125 3117 3119 3120 3118 3117 3118 3118 3117 3118
3132 3134 3134 3136 3138 3138 3139 3140 3141 3142 3143 3143 3143 3144 3145 3145 3145 3145 3145 3144 3143 3140 3140 3139 3136 3137 3136 3136 3135 3133 3131 3132 3133 3131 3128 3122 3115 3115 3114 3112 3112 3113 3113 3113 3114
3131 3132 3133 3134 3135 3136 3136 3137 3138 3139 3139 3139 3140 3141 3142 3142 3142 3141 3139 3138 3136 3135 3134 3133 3131 3130 3128 3129 3127 3124 3124 3125 3125 3122 3120 3117 3111 3108 3102 3100 3104 3104 3106 3106 3109
3127 3129 3130 3131 3132 3134 3134 3133 3135 3136 3136 3136 3137 3137 3138 3138 3137 3136 3135 3133 3131 3128 3128 3128 3128 3127 3123 3124 3122 3116 3116 3117 3117 3114 3113 3111 3106 3100 3098 3095 3095 3095 3097 3100 3105